Year,Month,Day,Hour,Minute,Value (Times are PST for windgust in km/hr)
2014,07,19,00,23,27.40
2014,07,19,00,44,24.20
2014,07,19,01,07,33.80
2014,07,19,01,30,45.10
2014,07,19,01,54,27.40
2014,07,19,02,19,22.50
2014,07,19,02,41,27.40
2014,07,19,03,04,17.70
2014,07,19,03,28,30.60
2014,07,19,03,52,27.40
2014,07,19,04,18,22.50
2014,07,19,04,43,14.50
2014,07,19,05,06,24.20
2014,07,19,05,29,40.20
2014,07,19,05,53,29.00
2014,07,19,06,18,37.00
2014,07,19,06,41,32.20
2014,07,19,07,04,22.50
2014,07,19,07,29,22.50
2014,07,19,07,53,22.50
2014,07,19,08,17,22.50
2014,07,19,08,40,25.70
2014,07,19,09,06,16.10
2014,07,19,09,33,24.20
2014,07,19,09,58,20.90
2014,07,19,10,21,6.40
2014,07,19,10,46,20.90
2014,07,19,11,09,38.60
2014,07,19,11,37,14.50
2014,07,19,12,02,9.60
2014,07,19,12,25,12.90
2014,07,19,12,49,9.60
2014,07,19,13,13,9.60
2014,07,19,13,40,20.90
2014,07,19,14,05,8.10
2014,07,19,14,28,19.30
2014,07,19,14,52,27.40
2014,07,19,15,16,27.40
2014,07,19,15,43,30.60
2014,07,19,16,09,40.20
2014,07,19,16,33,46.70
2014,07,19,16,57,37.00
2014,07,19,17,21,33.80
2014,07,19,17,48,46.70
2014,07,19,18,14,43.50
2014,07,19,18,38,43.50
2014,07,19,19,02,48.30
2014,07,19,19,26,33.80
2014,07,19,19,51,11.30
2014,07,19,20,16,16.10
2014,07,19,20,40,25.70
2014,07,19,21,04,20.90
2014,07,19,21,28,11.30
2014,07,19,21,52,17.70
2014,07,19,22,18,24.20
2014,07,19,22,42,24.20
2014,07,19,23,05,32.20
2014,07,19,23,30,46.70
2014,07,19,23,55,40.20
